This is the latest recevied weather packets stored in our database for station/object 5B4ALR-13. If no packets are shown the sender has not sent any weather packets the latest 10 day(s).
| Time | Temp. | Humidity | Pressure | Rain* | Wind** | Luminosity | Snow |
|---|---|---|---|---|---|---|---|
| 1777589463 | 17.78° C | 76% | 1014.2 hPa | 0 mm | - | - | - |
| 1777588863 | 17.78° C | 76% | 1014.2 hPa | 0 mm | - | - | - |
| 1777588263 | 17.78° C | 75% | 1014.2 hPa | 0 mm | - | - | - |
| 1777587663 | 18.33° C | 75% | 1014.2 hPa | 0 mm | - | - | - |
| 1777587063 | 17.78° C | 75% | 1014.3 hPa | 0 mm | - | - | - |
| 1777586463 | 17.78° C | 74% | 1014.4 hPa | 0 mm | - | - | - |
| 1777585863 | 17.78° C | 74% | 1014.5 hPa | 0 mm | - | - | - |
| 1777585263 | 18.33° C | 74% | 1014.7 hPa | 0 mm | - | - | - |
| 1777584663 | 18.33° C | 74% | 1014.7 hPa | 0 mm | - | - | - |
| 1777584063 | 18.33° C | 73% | 1014.8 hPa | 0 mm | - | - | - |
| 1777583463 | 18.33° C | 73% | 1014.7 hPa | 0 mm | - | - | - |
| 1777582863 | 18.33° C | 72% | 1014.6 hPa | 0 mm | - | - | - |
| 1777582263 | 18.89° C | 72% | 1014.6 hPa | 0 mm | - | - | - |
| 1777581663 | 18.89° C | 71% | 1014.7 hPa | 0 mm | - | - | - |
| 1777581063 | 18.89° C | 70% | 1014.7 hPa | 0 mm | - | - | - |
| 1777580463 | 19.44° C | 70% | 1014.9 hPa | 0 mm | - | - | - |
| 1777579863 | 19.44° C | 69% | 1014.9 hPa | 0 mm | - | - | - |
| 1777579263 | 19.44° C | 68% | 1014.9 hPa | 0 mm | - | - | - |
| 1777578663 | 19.44° C | 68% | 1014.9 hPa | 0 mm | - | - | - |
| 1777578063 | 19.44° C | 67% | 1015 hPa | 0 mm | - | - | - |
| 1777577463 | 20° C | 67% | 1015 hPa | 0 mm | - | - | - |
| 1777576863 | 20° C | 66% | 1014.8 hPa | 0 mm | - | - | - |
| 1777576263 | 20° C | 65% | 1014.8 hPa | 0 mm | - | - | - |
| 1777575663 | 20° C | 65% | 1014.9 hPa | 0 mm | - | - | - |
| 1777575063 | 20.56° C | 64% | 1014.9 hPa | 0 mm | - | - | - |
* Rain latest hour (hover to see other rain measurements)
** Current wind speed in m/s (hover to see current wind gust speed)